Location: Gwatt
(46.7204°N, 7.6223°E)
Time: 09:52:17
(UTC+00:00)

Vanguard 1 - Visible Passes

Search period start: 24 January 2021 00:00
Search period end: 03 February 2021 00:00
Orbit: 648 x 3834 km, 34.3° (Epoch: 23 January)

Date Brightness Start Highest point End Pass type
(mag) Time Alt. Az. Time Alt. Az. Time Alt. Az.
24 Jan 13.6 16:56:17 10° W 17:17:55 49° SSW 17:35:05 10° SE visible
24 Jan 13.6 19:24:36 10° W 19:39:48 24° SW 19:51:28 10° S visible
25 Jan 13.6 17:17:39 10° W 17:38:35 44° SSW 17:55:13 10° SE visible
25 Jan 13.8 19:47:38 10° W 19:59:45 18° SW 20:09:38 10° SSW visible
26 Jan 13.7 17:39:11 10° W 17:59:06 38° SW 18:15:03 10° SSE visible
26 Jan 14.0 20:12:29 10° WSW 20:19:35 13° WSW 20:25:54 10° SW visible
27 Jan 13.8 18:00:57 10° W 18:19:28 32° SW 18:34:32 10° SSE visible
28 Jan 13.9 18:23:05 10° W 18:39:40 26° SW 18:53:31 10° S visible
29 Jan 14.1 18:45:55 10° W 18:59:45 20° SW 19:11:42 10° SSW visible
30 Jan 14.0 16:38:41 10° W 16:58:18 39° SW 17:16:21 10° SSE visible
30 Jan 14.3 19:10:12 10° W 19:19:43 14° SW 19:28:21 10° SSW visible
31 Jan 14.1 17:00:20 10° W 17:18:48 33° SW 17:35:48 10° SSE visible
01 Feb 14.2 17:22:22 10° W 17:39:09 27° SW 17:54:44 10° S visible
02 Feb 14.4 17:45:03 10° W 17:59:23 21° SW 18:12:53 10° S visible
